Location: *
(60.1759°S, 155.0663°W)
Time: 21:27:27
(UTC+00:00)

H-2A R/B - Pass Details

Date: 17 September 2019
Orbit: 529 x 654 km, 98.3° (Epoch: 20 October)

Event Time Altitude Azimuth Distance (km) Brightness Sun altitude
Exits shadow 14:44:02 16° 259° (WSW) 1,631 4.2 -13.0°
Drops below altitude 10° 14:46:25 10° 226° (SW) 2,021 4.9 -12.7°
Sets 14:49:28 0° 204° (SSW) 2,962 6.0 -12.4°
